Simultaneous Nadir Overpasses (SNOs) Predictions

Prediction of SNOs between AQUA and METOP-A Satellite Orbit:

Table of predicted SNOs for the next 14.0 days since TLE Epoch: 8/23/2019
Index Date (AQUA) Time (AQUA) Lat,Lon (AQUA) SZA (AQUA ) Date (METOP-A) Time (METOP-A) Lat,Lon (METOP-A) SZA (METOP-A ) Distance(km) Time Diff (sec)
1 08/25/2019 19:01:12 -75.09, 65.97 115.44 08/25/2019 19:00:02 -75.07, 64.45 115.38 43.40 70
2 08/25/2019 19:50:46 75.40,-127.23 64.92 08/25/2019 19:50:35 75.39,-127.29 64.91 2.06 11
3 08/25/2019 20:40:12 -75.44, 40.30 115.03 08/25/2019 20:41:16 -75.43, 40.17 115.04 3.72 64
4 08/28/2019 14:35:33 -75.38, 131.62 114.14 08/28/2019 14:34:20 -75.39, 131.75 114.13 3.88 73
5 08/28/2019 15:25:02 75.44, -60.91 65.94 08/28/2019 15:24:59 75.42, -60.83 65.92 3.33 3
6 08/28/2019 16:14:28 -75.48, 106.63 114.01 08/28/2019 16:15:40 -75.47, 106.64 114.04 1.06 72
7 08/31/2019 10:09:47 -75.38,-161.93 113.16 08/31/2019 10:08:44 -75.38,-161.92 113.14 0.50 63
8 08/31/2019 10:59:16 75.44, 5.53 66.93 08/31/2019 10:59:22 75.45, 5.63 66.94 3.34 6
9 08/31/2019 11:48:48 -75.77, 172.22 112.69 08/31/2019 11:49:57 -75.79, 173.98 112.76 48.16 69
10 09/03/2019 05:44:02 -75.37, -95.49 112.15 09/03/2019 05:43:09 -75.37, -95.60 112.14 3.23 53
11 09/03/2019 06:33:31 75.44, 71.96 67.94 09/03/2019 06:33:47 75.44, 71.94 67.94 0.59 16
12 09/06/2019 01:18:18 -75.43, -29.20 111.06 09/06/2019 01:17:33 -75.40, -29.14 111.08 3.05 45
13 09/06/2019 02:07:46 75.45, 138.38 68.98 09/06/2019 02:08:11 75.47, 138.40 69.00 3.06 25




NCC Satellite Simultaneous Nadir Overpasses (SNOs) Prediction Service
